DAL1575 KATL-KJFK

Flight info

Callsign DAL1575
Flight time 1h 33m
Altitude 35000
Route PHIIL3 HRTWL Q64 SAWED Q108 SIE CAMRN5
Aircraft A321/H-V/N

Departure

Time 2026-05-07 16:44
Airport Hartsfield Jackson Atlanta International Airport (KATL)

Arrival

Time 2026-05-07 18:17
Airport John F. Kennedy International Airport (KJFK)
Time Latitude Longitude Altitude Speed Heading
2026-05-07 16:09 33.63948 -84.43976 1006 ft 0 kts 90°
2026-05-07 16:11 33.63948 -84.43982 1008 ft 0 kts 90°
2026-05-07 16:11 33.63948 -84.43977 1007 ft 0 kts 90°
2026-05-07 16:26 33.63948 -84.43978 1006 ft 0 kts 90°
2026-05-07 16:33 33.63948 -84.44000 1006 ft 4 kts 94°
2026-05-07 16:34 33.63952 -84.44031 1006 ft 4 kts 116°
2026-05-07 16:34 33.63964 -84.44049 1006 ft 0 kts 147°
2026-05-07 16:36 33.63950 -84.44049 1006 ft 6 kts 182°
2026-05-07 16:37 33.63883 -84.44049 1006 ft 11 kts 179°
2026-05-07 16:37 33.63809 -84.44049 1006 ft 10 kts 180°
2026-05-07 16:37 33.63750 -84.44049 1006 ft 2 kts 180°
2026-05-07 16:38 33.63738 -84.44049 1006 ft 8 kts 180°
2026-05-07 16:38 33.63665 -84.43983 1006 ft 16 kts 99°
2026-05-07 16:38 33.63664 -84.43839 1006 ft 22 kts 90°
2026-05-07 16:38 33.63664 -84.43617 1006 ft 28 kts 89°
2026-05-07 16:39 33.63665 -84.43388 1006 ft 27 kts 90°
2026-05-07 16:39 33.63664 -84.43172 1006 ft 25 kts 89°
2026-05-07 16:39 33.63664 -84.42969 1006 ft 24 kts 90°
2026-05-07 16:39 33.63663 -84.42777 1006 ft 22 kts 91°
2026-05-07 16:40 33.63656 -84.42601 1007 ft 20 kts 90°
2026-05-07 16:40 33.63655 -84.42439 1007 ft 19 kts 90°
2026-05-07 16:40 33.63656 -84.42263 1007 ft 25 kts 90°
2026-05-07 16:40 33.63593 -84.42066 1007 ft 25 kts 113°
2026-05-07 16:41 33.63581 -84.41866 1006 ft 24 kts 90°
2026-05-07 16:41 33.63581 -84.41675 1006 ft 22 kts 90°
2026-05-07 16:41 33.63581 -84.41496 1005 ft 21 kts 90°
2026-05-07 16:41 33.63581 -84.41328 1005 ft 19 kts 90°
2026-05-07 16:42 33.63580 -84.41174 1006 ft 17 kts 90°
2026-05-07 16:42 33.63579 -84.41036 1006 ft 16 kts 89°
2026-05-07 16:42 33.63564 -84.40919 1006 ft 13 kts 136°
2026-05-07 16:42 33.63485 -84.40914 1007 ft 10 kts 194°
2026-05-07 16:43 33.63470 -84.40981 1007 ft 10 kts 271°
2026-05-07 16:43 33.63470 -84.41250 1005 ft 65 kts 270°
2026-05-07 16:43 33.63470 -84.42040 1007 ft 122 kts 270°
2026-05-07 16:43 33.63471 -84.43239 1006 ft 164 kts 270°
2026-05-07 16:44 33.63465 -84.44640 1541 ft 161 kts 269°
2026-05-07 16:44 33.63416 -84.45968 2156 ft 163 kts 269°
2026-05-07 16:44 33.63221 -84.47381 2518 ft 180 kts 260°
2026-05-07 16:44 33.62746 -84.48868 2729 ft 204 kts 248°
2026-05-07 16:45 33.62103 -84.50504 2897 ft 228 kts 247°
2026-05-07 16:45 33.61376 -84.52305 3214 ft 248 kts 245°
2026-05-07 16:45 33.60611 -84.54166 3995 ft 249 kts 245°
2026-05-07 16:45 33.59827 -84.55999 4893 ft 247 kts 240°
2026-05-07 16:46 33.58654 -84.57526 5652 ft 255 kts 219°
2026-05-07 16:46 33.57020 -84.58400 6297 ft 271 kts 198°
2026-05-07 16:46 33.55100 -84.58487 7053 ft 276 kts 186°
2026-05-07 16:46 33.53181 -84.58452 7806 ft 278 kts 187°
2026-05-07 16:47 33.51230 -84.58440 8455 ft 282 kts 188°
2026-05-07 16:47 33.49253 -84.58377 9150 ft 291 kts 179°
2026-05-07 16:47 33.47319 -84.57432 9829 ft 316 kts 149°
2026-05-07 16:47 33.45921 -84.55398 10408 ft 336 kts 118°
2026-05-07 16:48 33.45331 -84.52594 10997 ft 346 kts 97°
2026-05-07 16:48 33.45193 -84.49644 11265 ft 365 kts 90°
2026-05-07 16:48 33.45261 -84.46515 11390 ft 387 kts 87°
2026-05-07 16:48 33.45406 -84.43234 11640 ft 401 kts 86°
2026-05-07 16:49 33.45540 -84.39868 12128 ft 407 kts 88°
2026-05-07 16:49 33.45625 -84.36456 12703 ft 412 kts 88°
2026-05-07 16:49 33.45909 -84.33015 13214 ft 418 kts 79°
2026-05-07 16:49 33.46616 -84.29631 13762 ft 422 kts 71°
2026-05-07 16:50 33.47455 -84.26247 14277 ft 426 kts 71°
2026-05-07 16:50 33.48310 -84.22833 14769 ft 430 kts 71°
2026-05-07 16:50 33.49185 -84.19385 15259 ft 435 kts 70°
2026-05-07 16:50 33.50074 -84.15898 15748 ft 440 kts 70°
2026-05-07 16:51 33.50973 -84.12370 16207 ft 445 kts 70°
2026-05-07 16:51 33.51879 -84.08805 16623 ft 449 kts 70°
2026-05-07 16:51 33.52789 -84.05209 17085 ft 454 kts 70°
2026-05-07 16:51 33.53705 -84.01569 17547 ft 458 kts 70°
2026-05-07 16:52 33.54625 -83.97894 18034 ft 463 kts 70°
2026-05-07 16:52 33.55554 -83.94181 18449 ft 467 kts 71°
2026-05-07 16:52 33.56491 -83.90439 18850 ft 470 kts 71°
2026-05-07 16:52 33.57431 -83.86679 19261 ft 473 kts 71°
2026-05-07 16:53 33.58417 -83.82904 19666 ft 474 kts 66°
2026-05-07 16:53 33.59724 -83.79287 20058 ft 474 kts 62°
2026-05-07 16:53 33.61083 -83.75727 20449 ft 477 kts 62°
2026-05-07 16:53 33.62463 -83.72097 20842 ft 480 kts 62°
2026-05-07 16:54 33.63846 -83.68445 21223 ft 482 kts 62°
2026-05-07 16:54 33.65203 -83.64750 21599 ft 486 kts 66°
2026-05-07 16:54 33.66189 -83.60847 21984 ft 491 kts 76°
2026-05-07 16:54 33.66935 -83.56832 22384 ft 494 kts 76°
2026-05-07 16:55 33.67684 -83.52798 22733 ft 496 kts 76°
2026-05-07 16:55 33.68437 -83.48741 23066 ft 499 kts 76°
2026-05-07 16:55 33.69197 -83.44657 23429 ft 503 kts 76°
2026-05-07 16:55 33.69961 -83.40557 23759 ft 505 kts 76°
2026-05-07 16:56 33.70729 -83.36432 24077 ft 507 kts 77°
2026-05-07 16:56 33.71503 -83.32293 24393 ft 509 kts 76°
2026-05-07 16:56 33.73053 -83.23962 25030 ft 513 kts 77°
2026-05-07 16:57 33.73826 -83.19769 25342 ft 515 kts 77°
2026-05-07 16:57 33.74809 -83.15630 25659 ft 516 kts 68°
2026-05-07 16:57 33.76258 -83.11697 26005 ft 513 kts 58°
2026-05-07 16:57 33.78087 -83.08025 26310 ft 513 kts 54°
2026-05-07 16:58 33.79980 -83.04384 26611 ft 515 kts 54°
2026-05-07 16:58 33.81884 -83.00722 26913 ft 517 kts 54°
2026-05-07 16:58 33.83791 -82.97044 27185 ft 519 kts 54°
2026-05-07 16:58 33.85699 -82.93349 27454 ft 521 kts 54°
2026-05-07 16:59 33.87614 -82.89628 27724 ft 524 kts 54°
2026-05-07 16:59 33.89530 -82.85894 27993 ft 526 kts 54°
2026-05-07 16:59 33.91452 -82.82138 28285 ft 528 kts 54°
2026-05-07 16:59 33.93380 -82.78370 28573 ft 530 kts 54°
2026-05-07 17:00 33.95322 -82.74579 28817 ft 532 kts 54°
2026-05-07 17:00 33.97269 -82.70786 29060 ft 534 kts 54°
2026-05-07 17:00 33.99224 -82.66975 29325 ft 536 kts 54°
2026-05-07 17:00 34.01183 -82.63139 29555 ft 539 kts 54°
2026-05-07 17:01 34.03135 -82.59293 29702 ft 543 kts 55°
2026-05-07 17:01 34.05122 -82.55364 29898 ft 546 kts 55°
2026-05-07 17:01 34.07098 -82.51444 30101 ft 548 kts 55°
2026-05-07 17:01 34.09077 -82.47503 30267 ft 551 kts 55°
2026-05-07 17:02 34.11040 -82.43591 30450 ft 553 kts 55°
2026-05-07 17:02 34.13033 -82.39619 30704 ft 553 kts 55°
2026-05-07 17:02 34.15019 -82.35659 31158 ft 549 kts 55°
2026-05-07 17:02 34.16992 -82.31725 31487 ft 548 kts 55°
2026-05-07 17:03 34.18969 -82.27785 31764 ft 548 kts 55°
2026-05-07 17:03 34.20948 -82.23842 32053 ft 549 kts 56°
2026-05-07 17:03 34.22920 -82.19898 32366 ft 549 kts 55°
2026-05-07 17:03 34.24900 -82.15934 32522 ft 553 kts 55°
2026-05-07 17:04 34.26249 -82.13237 32630 ft 555 kts 55°
2026-05-07 17:04 34.28256 -82.09245 32820 ft 556 kts 55°
2026-05-07 17:04 34.30271 -82.05255 33065 ft 557 kts 55°
2026-05-07 17:04 34.32293 -82.01255 33337 ft 557 kts 55°
2026-05-07 17:05 34.34285 -81.97303 33599 ft 558 kts 55°
2026-05-07 17:05 34.36300 -81.93291 33949 ft 557 kts 56°
2026-05-07 17:05 34.38307 -81.89279 34164 ft 558 kts 56°
2026-05-07 17:05 34.40317 -81.85256 34398 ft 558 kts 55°
2026-05-07 17:06 34.42323 -81.81237 34648 ft 557 kts 55°
2026-05-07 17:06 34.44326 -81.77224 34865 ft 558 kts 55°
2026-05-07 17:06 34.48324 -81.69205 34911 ft 555 kts 55°
2026-05-07 17:07 34.52308 -81.61200 34898 ft 553 kts 55°
2026-05-07 17:07 34.56269 -81.53224 34888 ft 552 kts 55°
2026-05-07 17:08 34.60222 -81.45241 34890 ft 552 kts 55°
2026-05-07 17:08 34.64165 -81.37247 34913 ft 552 kts 55°
2026-05-07 17:09 34.68114 -81.29250 34970 ft 552 kts 55°
2026-05-07 17:09 34.72064 -81.21224 34926 ft 554 kts 55°
2026-05-07 17:10 34.76008 -81.13174 34926 ft 554 kts 55°
2026-05-07 17:10 34.79881 -81.05067 34919 ft 556 kts 61°
2026-05-07 17:11 34.83081 -80.96473 34909 ft 558 kts 63°
2026-05-07 17:11 34.86254 -80.87868 34898 ft 558 kts 63°
2026-05-07 17:12 34.89431 -80.79248 34899 ft 558 kts 63°
2026-05-07 17:12 34.92603 -80.70621 34918 ft 558 kts 63°
2026-05-07 17:13 34.95766 -80.61992 34912 ft 558 kts 63°
2026-05-07 17:13 34.98898 -80.53399 34889 ft 558 kts 63°
2026-05-07 17:14 35.02048 -80.44742 34891 ft 558 kts 63°
2026-05-07 17:14 35.05190 -80.36087 34887 ft 558 kts 63°
2026-05-07 17:15 35.08328 -80.27424 34886 ft 558 kts 63°
2026-05-07 17:15 35.11457 -80.18763 34920 ft 558 kts 63°
2026-05-07 17:16 35.14587 -80.10083 34917 ft 558 kts 63°
2026-05-07 17:16 35.17695 -80.01398 34921 ft 557 kts 64°
2026-05-07 17:17 35.20795 -79.92720 34915 ft 557 kts 63°
2026-05-07 17:17 35.23903 -79.84051 34901 ft 556 kts 63°
2026-05-07 17:18 35.27002 -79.75382 34862 ft 556 kts 63°
2026-05-07 17:18 35.30090 -79.66687 34847 ft 558 kts 63°
2026-05-07 17:19 35.33188 -79.57948 34865 ft 560 kts 63°
2026-05-07 17:19 35.36295 -79.49184 34861 ft 562 kts 63°
2026-05-07 17:20 35.39406 -79.40389 34849 ft 563 kts 63°
2026-05-07 17:20 35.42508 -79.31586 34876 ft 563 kts 63°
2026-05-07 17:21 35.45600 -79.22772 34880 ft 562 kts 63°
2026-05-07 17:21 35.48677 -79.13961 34887 ft 562 kts 63°
2026-05-07 17:22 35.51756 -79.05144 34851 ft 562 kts 64°
2026-05-07 17:22 35.54816 -78.96347 34899 ft 559 kts 64°
2026-05-07 17:23 35.57857 -78.87569 34906 ft 557 kts 64°
2026-05-07 17:23 35.60881 -78.78821 34902 ft 556 kts 64°
2026-05-07 17:24 35.63897 -78.70081 34898 ft 555 kts 64°
2026-05-07 17:24 35.66901 -78.61341 34883 ft 554 kts 63°
2026-05-07 17:25 35.69893 -78.52615 34907 ft 554 kts 64°
2026-05-07 17:25 35.72895 -78.43845 34886 ft 557 kts 64°
2026-05-07 17:26 35.75889 -78.35046 34867 ft 558 kts 64°
2026-05-07 17:26 35.78878 -78.26232 34870 ft 558 kts 64°
2026-05-07 17:27 35.81868 -78.17415 34890 ft 558 kts 64°
2026-05-07 17:27 35.84864 -78.08585 34895 ft 558 kts 64°
2026-05-07 17:28 35.87843 -77.99739 34891 ft 559 kts 64°
2026-05-07 17:28 35.90792 -77.90946 34911 ft 559 kts 64°
2026-05-07 17:29 35.93766 -77.82091 34915 ft 558 kts 64°
2026-05-07 17:29 35.96846 -77.73306 34897 ft 555 kts 57°
2026-05-07 17:30 36.01201 -77.65644 34890 ft 538 kts 39°
2026-05-07 17:30 36.06294 -77.58872 34866 ft 538 kts 39°
2026-05-07 17:31 36.11352 -77.52065 34922 ft 537 kts 39°
2026-05-07 17:31 36.16375 -77.45274 34932 ft 534 kts 39°
2026-05-07 17:32 36.21401 -77.38499 34927 ft 534 kts 39°
2026-05-07 17:32 36.25576 -77.32864 34924 ft 534 kts 39°
2026-05-07 17:33 36.31465 -77.24959 34954 ft 530 kts 35°
2026-05-07 17:33 36.36882 -77.18833 34926 ft 527 kts 33°
2026-05-07 17:34 36.42294 -77.12792 34922 ft 527 kts 32°
2026-05-07 17:34 36.47743 -77.06701 34922 ft 527 kts 33°
2026-05-07 17:35 36.53188 -77.00584 34966 ft 528 kts 33°
2026-05-07 17:35 36.58631 -76.94453 34955 ft 528 kts 33°
2026-05-07 17:36 36.64075 -76.88312 34952 ft 529 kts 33°
2026-05-07 17:36 36.69529 -76.82153 34941 ft 529 kts 33°
2026-05-07 17:37 36.74971 -76.75992 34985 ft 529 kts 34°
2026-05-07 17:37 36.80418 -76.69810 34973 ft 530 kts 34°
2026-05-07 17:38 36.85864 -76.63613 34948 ft 530 kts 34°
2026-05-07 17:38 36.91310 -76.57405 34948 ft 530 kts 34°
2026-05-07 17:39 36.96755 -76.51190 34979 ft 531 kts 34°
2026-05-07 17:39 37.02213 -76.44950 34938 ft 532 kts 34°
2026-05-07 17:40 37.07672 -76.38694 34946 ft 532 kts 34°
2026-05-07 17:40 37.13127 -76.32431 34952 ft 532 kts 34°
2026-05-07 17:41 37.18583 -76.26152 34961 ft 533 kts 34°
2026-05-07 17:41 37.24059 -76.19852 34928 ft 535 kts 34°
2026-05-07 17:42 37.29532 -76.13518 34887 ft 536 kts 35°
2026-05-07 17:42 37.35000 -76.07157 34914 ft 535 kts 35°
2026-05-07 17:43 37.40473 -76.00795 34925 ft 536 kts 35°
2026-05-07 17:43 37.45966 -75.94426 34900 ft 538 kts 34°
2026-05-07 17:44 37.51468 -75.88039 34923 ft 538 kts 33°
2026-05-07 17:44 37.54367 -75.85144 34929 ft 527 kts 24°
2026-05-07 17:44 37.57462 -75.82732 34937 ft 521 kts 20°
2026-05-07 17:45 37.63698 -75.78080 34928 ft 521 kts 21°
2026-05-07 17:45 37.69937 -75.73404 34943 ft 521 kts 21°
2026-05-07 17:46 37.76122 -75.68747 34947 ft 521 kts 21°
2026-05-07 17:46 37.82351 -75.64049 34939 ft 522 kts 20°
2026-05-07 17:47 37.88537 -75.59154 34932 ft 528 kts 24°
2026-05-07 17:47 37.94590 -75.53813 34932 ft 532 kts 26°
2026-05-07 17:48 38.00615 -75.48350 34954 ft 533 kts 26°
2026-05-07 17:48 38.06706 -75.42985 34929 ft 533 kts 24°
2026-05-07 17:49 38.12924 -75.37890 34920 ft 531 kts 22°
2026-05-07 17:49 38.19196 -75.32928 34933 ft 531 kts 22°
2026-05-07 17:50 38.25641 -75.28638 34934 ft 512 kts
2026-05-07 17:50 38.28997 -75.27352 34930 ft 497 kts 359°
2026-05-07 17:50 38.32362 -75.26587 34928 ft 489 kts 355°
2026-05-07 17:51 38.37954 -75.25430 34928 ft 491 kts 355°
2026-05-07 17:51 38.45841 -75.23779 34946 ft 493 kts 355°
2026-05-07 17:52 38.51472 -75.22590 34928 ft 494 kts 355°
2026-05-07 17:52 38.58297 -75.21160 34948 ft 502 kts 355°
2026-05-07 17:53 38.61761 -75.20445 34787 ft 505 kts 355°
2026-05-07 17:53 38.65233 -75.19718 34826 ft 509 kts 356°
2026-05-07 17:53 38.68733 -75.18563 34821 ft 530 kts
2026-05-07 17:53 38.72155 -75.16577 34820 ft 550 kts 20°
2026-05-07 17:54 38.75358 -75.13770 34826 ft 564 kts 29°
2026-05-07 17:54 38.78467 -75.10691 34594 ft 566 kts 29°
2026-05-07 17:54 38.81584 -75.07609 34261 ft 566 kts 29°
2026-05-07 17:54 38.84706 -75.04535 33984 ft 565 kts 29°
2026-05-07 17:55 38.87836 -75.01460 33620 ft 568 kts 29°
2026-05-07 17:55 38.90978 -74.98378 33151 ft 570 kts 29°
2026-05-07 17:55 38.94129 -74.95283 32615 ft 570 kts 29°
2026-05-07 17:55 38.97283 -74.92181 32086 ft 572 kts 29°
2026-05-07 17:56 39.00441 -74.89070 31570 ft 573 kts 29°
2026-05-07 17:56 39.03603 -74.85944 31059 ft 574 kts 29°
2026-05-07 17:56 39.06766 -74.82806 30606 ft 574 kts 29°
2026-05-07 17:56 39.09916 -74.79672 30113 ft 571 kts 30°
2026-05-07 17:57 39.13020 -74.76490 29622 ft 569 kts 31°
2026-05-07 17:57 39.15041 -74.74344 29293 ft 567 kts 32°
2026-05-07 17:57 39.19041 -74.69964 28642 ft 562 kts 33°
2026-05-07 17:57 39.21986 -74.66685 28164 ft 556 kts 34°
2026-05-07 17:58 39.24908 -74.63441 27767 ft 553 kts 34°
2026-05-07 17:58 39.27827 -74.60231 27301 ft 550 kts 33°
2026-05-07 17:58 39.30740 -74.57058 26851 ft 546 kts 33°
2026-05-07 17:58 39.33642 -74.53922 26402 ft 542 kts 33°
2026-05-07 17:59 39.36524 -74.50816 25956 ft 538 kts 33°
2026-05-07 17:59 39.39382 -74.47731 25525 ft 534 kts 34°
2026-05-07 17:59 39.42211 -74.44664 25098 ft 526 kts 34°
2026-05-07 17:59 39.44966 -74.41653 24707 ft 511 kts 34°
2026-05-07 18:00 39.47642 -74.38713 24288 ft 498 kts 34°
2026-05-07 18:00 39.50249 -74.35847 23876 ft 485 kts 34°
2026-05-07 18:00 39.52788 -74.33058 23445 ft 474 kts 34°
2026-05-07 18:00 39.55276 -74.30324 22954 ft 463 kts 34°
2026-05-07 18:01 39.57708 -74.27653 22488 ft 454 kts 34°
2026-05-07 18:01 39.60105 -74.25025 22020 ft 448 kts 33°
2026-05-07 18:01 39.62473 -74.22435 21573 ft 443 kts 33°
2026-05-07 18:01 39.64820 -74.19869 21196 ft 441 kts 33°
2026-05-07 18:02 39.69470 -74.14764 20448 ft 434 kts 33°
2026-05-07 18:02 39.71762 -74.12234 20081 ft 431 kts 33°
2026-05-07 18:02 39.74035 -74.09722 19723 ft 427 kts 33°
2026-05-07 18:03 39.76291 -74.07228 19359 ft 425 kts 33°
2026-05-07 18:03 39.78534 -74.04745 19022 ft 422 kts 32°
2026-05-07 18:03 39.80765 -74.02274 18711 ft 420 kts 33°
2026-05-07 18:03 39.82981 -73.99826 18353 ft 416 kts 31°
2026-05-07 18:04 39.85315 -73.97728 17964 ft 400 kts 18°
2026-05-07 18:04 39.87749 -73.96020 17542 ft 397 kts 18°
2026-05-07 18:04 39.90174 -73.94315 17097 ft 395 kts 19°
2026-05-07 18:04 39.92587 -73.92607 16660 ft 394 kts 20°
2026-05-07 18:05 39.94987 -73.90901 16232 ft 392 kts 20°
2026-05-07 18:05 39.97379 -73.89200 15802 ft 391 kts 20°
2026-05-07 18:05 39.99759 -73.87510 15414 ft 389 kts 21°
2026-05-07 18:05 40.02134 -73.85833 14990 ft 386 kts 20°
2026-05-07 18:06 40.04499 -73.84288 14579 ft 374 kts 18°
2026-05-07 18:06 40.06827 -73.82877 14174 ft 364 kts 17°
2026-05-07 18:06 40.09115 -73.81551 13779 ft 355 kts 17°
2026-05-07 18:06 40.11353 -73.80270 13334 ft 348 kts 17°
2026-05-07 18:07 40.13553 -73.79004 12891 ft 344 kts 17°
2026-05-07 18:07 40.15726 -73.77738 12453 ft 341 kts 17°
2026-05-07 18:07 40.17881 -73.76466 12018 ft 338 kts 17°
2026-05-07 18:07 40.20014 -73.75194 11607 ft 337 kts 17°
2026-05-07 18:08 40.22144 -73.73920 11161 ft 337 kts 17°
2026-05-07 18:08 40.24253 -73.72651 10713 ft 330 kts 17°
2026-05-07 18:08 40.26317 -73.71405 10280 ft 323 kts 17°
2026-05-07 18:08 40.28340 -73.70181 9851 ft 317 kts 17°
2026-05-07 18:09 40.30326 -73.68981 9382 ft 311 kts 17°
2026-05-07 18:09 40.32271 -73.67808 8917 ft 305 kts 17°
2026-05-07 18:09 40.34181 -73.66656 8446 ft 299 kts 17°
2026-05-07 18:09 40.36052 -73.65528 7981 ft 293 kts 18°
2026-05-07 18:10 40.37865 -73.64433 7531 ft 280 kts 18°
2026-05-07 18:10 40.39594 -73.63387 7129 ft 267 kts 18°
2026-05-07 18:10 40.41222 -73.62404 6718 ft 255 kts 18°
2026-05-07 18:10 40.42793 -73.61455 6307 ft 243 kts 18°
2026-05-07 18:11 40.44301 -73.60543 5860 ft 234 kts 19°
2026-05-07 18:11 40.45284 -73.59950 5550 ft 228 kts 19°
2026-05-07 18:11 40.47149 -73.58826 4982 ft 217 kts 21°
2026-05-07 18:11 40.48521 -73.58001 4542 ft 210 kts 21°
2026-05-07 18:12 40.49820 -73.57218 4112 ft 202 kts 22°
2026-05-07 18:12 40.51094 -73.56481 3666 ft 197 kts 15°
2026-05-07 18:12 40.52401 -73.56388 3237 ft 190 kts 346°
2026-05-07 18:12 40.53561 -73.57184 2985 ft 183 kts 317°
2026-05-07 18:13 40.54299 -73.58510 2996 ft 183 kts 302°
2026-05-07 18:13 40.54958 -73.59957 2976 ft 182 kts 302°
2026-05-07 18:13 40.55608 -73.61384 2907 ft 182 kts 302°
2026-05-07 18:13 40.56258 -73.62807 2721 ft 181 kts 302°
2026-05-07 18:14 40.56898 -73.64211 2485 ft 181 kts 302°
2026-05-07 18:14 40.57549 -73.65639 2238 ft 175 kts 302°
2026-05-07 18:14 40.58150 -73.66958 2015 ft 164 kts 302°
2026-05-07 18:14 40.58734 -73.68239 1775 ft 162 kts 301°
2026-05-07 18:15 40.59284 -73.69448 1574 ft 149 kts 301°
2026-05-07 18:15 40.59811 -73.70607 1378 ft 146 kts 301°
2026-05-07 18:15 40.60328 -73.71741 1179 ft 143 kts 301°
2026-05-07 18:15 40.60843 -73.72872 965 ft 144 kts 301°
2026-05-07 18:16 40.61347 -73.74002 738 ft 143 kts 301°
2026-05-07 18:16 40.61849 -73.75125 588 ft 142 kts 302°
2026-05-07 18:16 40.62348 -73.76220 381 ft 137 kts 304°
2026-05-07 18:16 40.62835 -73.77265 171 ft 134 kts 304°
2026-05-07 18:17 40.63312 -73.78318 46 ft 134 kts 303°
2026-05-07 18:17 40.63756 -73.79287 28 ft 112 kts 300°
2026-05-07 18:17 40.64042 -73.79916 27 ft 47 kts 302°
2026-05-07 18:17 40.64183 -73.80144 25 ft 26 kts 328°
2026-05-07 18:18 40.64345 -73.80254 19 ft 25 kts 330°
2026-05-07 18:18 40.64448 -73.80373 22 ft 18 kts 339°
2026-05-07 18:18 40.64478 -73.80277 21 ft 14 kts 120°
2026-05-07 18:18 40.64429 -73.80170 22 ft 14 kts 121°
2026-05-07 18:19 40.64379 -73.80062 22 ft 15 kts 121°
2026-05-07 18:19 40.64321 -73.79939 26 ft 15 kts 125°
2026-05-07 18:19 40.64248 -73.79839 25 ft 18 kts 136°
2026-05-07 18:19 40.64164 -73.79695 26 ft 23 kts 121°
2026-05-07 18:20 40.64066 -73.79486 24 ft 31 kts 122°
2026-05-07 18:20 40.63948 -73.79224 20 ft 34 kts 121°
2026-05-07 18:20 40.63837 -73.78979 24 ft 29 kts 122°
2026-05-07 18:20 40.63744 -73.78779 29 ft 22 kts 120°
2026-05-07 18:21 40.63671 -73.78618 28 ft 19 kts 120°
2026-05-07 18:21 40.63613 -73.78487 29 ft 15 kts 121°
2026-05-07 18:21 40.63594 -73.78384 27 ft 11 kts 64°
2026-05-07 18:21 40.63662 -73.78350 25 ft 10 kts 355°
2026-05-07 18:22 40.63718 -73.78359 25 ft 7 kts 353°
2026-05-07 18:22 40.63744 -73.78363 25 ft 5 kts 353°
2026-05-07 18:22 40.63786 -73.78370 25 ft 3 kts 352°
2026-05-07 18:22 40.63788 -73.78371 25 ft 0 kts 352°
2026-05-07 18:24 40.63810 -73.78374 25 ft 10 kts 353°
2026-05-07 18:24 40.63911 -73.78410 25 ft 20 kts 334°
2026-05-07 18:24 40.64039 -73.78433 23 ft 16 kts
2026-05-07 18:24 40.64125 -73.78466 23 ft 7 kts 331°
2026-05-07 18:25 40.64129 -73.78469 24 ft 0 kts 330°
2026-05-07 18:26 40.64124 -73.78466 23 ft 8 kts 328°
2026-05-07 18:26 40.64153 -73.78485 23 ft 7 kts 340°
2026-05-07 18:27 40.64198 -73.78478 23 ft 7 kts 38°
2026-05-07 18:27 40.64219 -73.78441 23 ft 1 kts 60°
2026-05-07 18:29 40.64219 -73.78442 23 ft 0 kts 60°